Tracking 29487 objects as of 11-Sep-2024
HD Live streaming from Space Station
objects crossing your sky now

SL-3 DEB

Track SL-3 DEB now!
10-day predictions


NORAD ID: 14229
Int'l Code: 1983-075D
Perigee: 539.3 km
Apogee: 581.8 km
Inclination: 97.8 °
Period: 95.7 minutes
Semi major axis: 6931 km
RCS: 0.0149 m2 (small)
Launch date: July 24, 1983
Source: Commonwealth of Independent States (former USSR) (CIS)
Launch site: TYURATAM MISSILE AND SPACE COMPLEX (TTMTR)

Note: This is SATELLITE DEBRIS
Your satellite tracking list
Your tracking list is empty




NASA's NSSDC Master Catalog

Two Line Element Set (TLE):
1 14229U 83075D   24255.59619760  .00008228  00000-0  58787-3 0  9990
2 14229  97.8259 226.5156 0030692 357.0884 113.8236 15.04374286234454
Source of the keplerian elements: AFSPC